"Pseudo-MPEC" for ZLB375D

Created 2018 Jun 17 14:19:11 UT using Find_Orb

Click here for an explanation of pseudo-MPECs

 
 Astrometry: 
     ZLB375D  C2018 06 10J8AstrometryNlf/i0+Ba81w8hlnvyfR/OCx]tK.N=6u*yd:^aUQF51
     ZLB375D  C2018 06 10LSi:E7jx$Ba-?`a#42ec*!^4(_=^6C7Y76J'4(#O6C5QF$1gHf%6F51
     ZLB375D  C2018 06 10@[YyVovG(4]-;K5s!%pj1HO'5wGn3gP+G)bp%cS9G`/LO('/xL@nF51
     ZLB375D  C2018 06 13tIOdvX3=brdE4[Kxhredacted;yNMKW/-@aY:/Sc8=c4PPRlIp87F51
     ZLB375D  C2018 06 13+c5s[4!/:3r!S4ZnCg1\+uJ5%V'(M?@2\/,xa'8tym(3Mv1:aGy\F51
     ZLB375D  C2018 06 14.32354 16 39 10.02 +00 24 50.5          20.3 GUNEOCPG96
     ZLB375D  C2018 06 14.32876 16 39 09.66 +00 24 59.8          20.5 GUNEOCPG96
     ZLB375D  C2018 06 14.33743 16 39 09.07 +00 25 15.2          20.2 GUNEOCPG96
     ZLB375D  C2018 06 14.34265 16 39 08.72 +00 25 24.1          20.4 GUNEOCPG96
     ZLB375D  C2018 06 14.42787 16 39 03.01 +00 27 51.6                UNEOCPI52
     ZLB375D  C2018 06 14.43278 16 39 02.61 +00 28 01.1          20.5 GUNEOCPI52
     ZLB375D  C2018 06 14.43354 16 39 02.62 +00 28 04.2          19.9 GUNEOCPI52
     ZLB375D  C2018 06 15.21563 16 38 13.35 +00 50 41.5          19.8 GUNEOCPI52
     ZLB375D  C2018 06 15.21657 16 38 13.30 +00 50 42.9          19.9 GUNEOCPI52
     ZLB375D  C2018 06 15.22005 16 38 13.05 +00 50 48.6          18.9 GUNEOCPI52
     ZLB375D |C2018 06 15q4NpDUidgLtMjr5qdcJWk8^A#R)JR?A@[IjZXZDF,rMPD!b%sK=1807
     ZLB375D |C2018 06 15G@dPDIf6_i'?Ha=nmjuw48xQr#JCu\joseet:xR]IYVq@s?gc;RS807
     ZLB375D |C2018 06 15)%t-HoCmdCA$9s^l0.%f%:yA#:`/GV8LPNEwu0A=h4jMZ!5`gn:[807
     ZLB375D KC2018 06 16m[_-un.Ra4(;c(8^l3UZHFa(GvBhE\J8rcG1.yrC\g`dDV9T6aRDL01
     ZLB375D KC2018 06 16!NfCM#GfO0@vvNvHKX6evdR/BKrtos#5pP8rg\\dXe:'jLqNEOCPL01

Station data:
(807) Cerro Tololo Observatory, La Serena  (S30.169136 W70.805900)  Chile.
   1.5-m Ritchey-Chrétien.
(F51) Pan-STARRS 1, Haleakala  (N20.707235 W156.255910)  US/Hawaii.
   Observers N. Primak, A. Schultz, S. Watters, J. Thiel, T. Goggia. Measurer
   PS1 Science Consortium. 1.8-m Ritchey-Chrétien + CCD.
(G96) Mt. Lemmon Survey  (N32.442754 W110.788720)  US/Arizona.  Observers B.
   M. Africano, E. J. Christensen, D. C. Fuls, A. R. Gibbs, A. D. Grauer, J.
   A. Johnson, R. A. Kowalski, S. M. Larson, G. J. Leonard, R. L. Seaman, F.
   C. Shelly. 1.5-m reflector + 10K CCD.
(I52) Steward Observatory, Mt. Lemmon Station  (N32.442547 W110.788920)
   US/Arizona.  Observers B. M. Africano, E. J. Christensen, D. C. Fuls, A.
   R. Gibbs, A. D. Grauer, J. A. Johnson, R. A. Kowalski, S. M. Larson, G. J.
   Leonard, R. L. Seaman, F. C. Shelly. 1.0-m reflector + CCD.
(L01) Višnjan Observatory, Tičan  (N45.290900 E13.749300)  Croatia.  Observer
   K. Korlević. 1.0-m f/2.9 reflector + CCD.

Orbital elements:  ZLB375D
   Perihelion 2018 Sep 30.684395 +/- 0.528 TT = 16:25:31 (JD 2458392.184395)
Epoch 2018 Jun 16.0 TT = JDT 2458285.5   Earth MOID: 0.6521   AutoNEOCP
M 334.35871 +/- 0.53                (J2000 ecliptic)
n   0.24034711 +/- 0.00623          Peri.   88.80708 +/- 0.7
a   2.56198610 +/- 0.0442           Node   236.41197 +/- 0.28
e   0.4488624 +/- 0.00447           Incl.   25.93543 +/- 0.6
P   4.10                   H 19.1   G  0.15   U  9.3  
q 1.41200680 +/- 0.0134    Q 3.71196539 +/- 0.077
From 20 observations 2018 June 10-16; mean residual 0".38
Residuals in arcseconds: 
180610 F51  .38-  .41-    180614 G96  .12+  .22+    180615 I52  .07-  .46-    
180610 F51  .12+  .09+    180614 G96  .19+  .00     180615 807  .01+  .05-    
180610 F51  .07+  .10+    180614 I52  .56+  1.3-    180615 807  .08+  .02+    
180613 F51  .13-  .25+    180614 I52  .54-  .32-    180615 807  .05+  .20+    
180613 F51  .16-  .28+    180614 I52  .36+  1.5+    180616 L01  .23-  .12+    
180614 G96  .18+  .22-    180615 I52  .04-  .09+    180616 L01  .18-  .16-    
180614 G96  .12+  .04-    180615 I52  .16+  .14-    

Ephemerides (geocentric):
Date (UTC) HH   RA              Dec         delta   r     elong  mag " sig PA
---- -- -- --  -------------   -----------  ------ ------ -----  --- ---- ---
2018 06 17 14  16 35 44.605   +01 58 01.97  .76086 1.7169 149.8 20.6  .08 149
2018 06 17 15  16 35 42.036   +01 59 11.84  .76083 1.7167 149.8 20.6  .07 149
2018 06 17 16  16 35 39.469   +02 00 21.65  .76080 1.7165 149.7 20.6  .07 148
2018 06 17 17  16 35 36.903   +02 01 31.43  .76078 1.7163 149.7 20.6  .07 148
2018 06 17 18  16 35 34.340   +02 02 41.17  .76075 1.7161 149.7 20.6  .06 147
2018 06 17 19  16 35 31.777   +02 03 50.87  .76073 1.7159 149.6 20.6  .06 146
2018 06 17 20  16 35 29.217   +02 05 00.52  .76070 1.7157 149.6 20.6  .05 146
2018 06 17 21  16 35 26.659   +02 06 10.13  .76068 1.7155 149.5 20.6  .05 145
2018 06 17 22  16 35 24.102   +02 07 19.70  .76066 1.7153 149.5 20.6  .05 144
2018 06 17 23  16 35 21.547   +02 08 29.23  .76063 1.7151 149.4 20.6  .04 143
2018 06 18 00  16 35 18.994   +02 09 38.71  .76061 1.7149 149.4 20.6  .04 142
2018 06 18 01  16 35 16.442   +02 10 48.15  .76059 1.7147 149.3 20.6  .03 140
2018 06 18 02  16 35 13.893   +02 11 57.55  .76057 1.7145 149.3 20.6  .03 138
2018 06 18 03  16 35 11.345   +02 13 06.91  .76055 1.7143 149.2 20.6  .02 134
2018 06 18 04  16 35 08.799   +02 14 16.23  .76052 1.7141 149.2 20.6  .02 129
2018 06 18 05  16 35 06.255   +02 15 25.50  .76050 1.7139 149.1 20.6  .01 118
2018 06 18 06  16 35 03.712   +02 16 34.73  .76048 1.7136 149.1 20.6  .01  87
2018 06 18 07  16 35 01.172   +02 17 43.91  .76046 1.7134 149.1 20.6  .01  27
2018 06 18 08  16 34 58.633   +02 18 53.06  .76044 1.7132 149.0 20.6  .01 177
2018 06 18 09  16 34 56.096   +02 20 02.16  .76042 1.7130 149.0 20.6  .02 166
2018 06 18 10  16 34 53.561   +02 21 11.22  .76041 1.7128 148.9 20.6  .02 160
2018 06 18 11  16 34 51.028   +02 22 20.23  .76039 1.7126 148.9 20.6  .03 157
2018 06 18 12  16 34 48.497   +02 23 29.20  .76037 1.7124 148.8 20.6  .04 155
2018 06 18 13  16 34 45.968   +02 24 38.13  .76035 1.7122 148.8 20.6  .04 153
2018 06 18 14  16 34 43.440   +02 25 47.01  .76033 1.7120 148.7 20.6  .05 152
2018 06 18 15  16 34 40.915   +02 26 55.85  .76032 1.7118 148.7 20.6  .06 151
2018 06 18 16  16 34 38.391   +02 28 04.65  .76030 1.7116 148.6 20.6  .07 150
2018 06 18 17  16 34 35.869   +02 29 13.40  .76028 1.7114 148.6 20.6  .07 150
2018 06 18 18  16 34 33.350   +02 30 22.11  .76027 1.7112 148.5 20.6  .08 149
2018 06 18 19  16 34 30.832   +02 31 30.77  .76025 1.7110 148.5 20.6  .09 148
2018 06 18 20  16 34 28.316   +02 32 39.39  .76024 1.7108 148.5 20.6  .10 148
2018 06 18 21  16 34 25.802   +02 33 47.97  .76022 1.7106 148.4 20.6  .11 148
2018 06 18 22  16 34 23.290   +02 34 56.50  .76021 1.7104 148.4 20.6  .12 147
2018 06 18 23  16 34 20.780   +02 36 04.99  .76019 1.7102 148.3 20.6  .12 147
2018 06 19 00  16 34 18.272   +02 37 13.43  .76018 1.7100 148.3 20.6  .13 146
2018 06 19 01  16 34 15.765   +02 38 21.83  .76016 1.7098 148.2 20.6  .14 146
2018 06 19 02  16 34 13.261   +02 39 30.18  .76015 1.7096 148.2 20.6  .15 146
2018 06 19 03  16 34 10.759   +02 40 38.49  .76014 1.7094 148.1 20.6  .16 145
2018 06 19 04  16 34 08.259   +02 41 46.75  .76013 1.7092 148.1 20.6  .17 145
2018 06 19 05  16 34 05.761   +02 42 54.97  .76011 1.7090 148.0 20.6  .18 145
2018 06 19 06  16 34 03.265   +02 44 03.14  .76010 1.7088 148.0 20.6  .19 145
2018 06 19 07  16 34 00.771   +02 45 11.27  .76009 1.7086 147.9 20.6  .21 144
2018 06 19 08  16 33 58.279   +02 46 19.36  .76008 1.7084 147.9 20.6  .22 144
2018 06 19 09  16 33 55.789   +02 47 27.39  .76007 1.7082 147.8 20.6  .23 144
2018 06 19 10  16 33 53.301   +02 48 35.39  .76006 1.7080 147.8 20.6  .24 144
2018 06 19 11  16 33 50.815   +02 49 43.33  .76005 1.7078 147.8 20.6  .25 143
2018 06 19 12  16 33 48.331   +02 50 51.23  .76004 1.7076 147.7 20.6  .26 143
2018 06 19 13  16 33 45.849   +02 51 59.09  .76003 1.7074 147.7 20.6  .27 143